Time,TemperatureF,DewpointF,PressureIn,WindDirection,WindDirectionDegrees,WindSpeedMPH,WindSpeedGustMPH,Humidity,HourlyPrecipIn,Conditions,Clouds,dailyrainin,SoftwareType,DateUTC
2013-02-04 00:22:00,10.0,6.0,-100.00,North,-999,-999.0,-999.0,84,-99.99,,,-99.99,,2013-02-04 05:22:00,
2013-02-04 00:33:00,10.0,6.0,-100.00,North,-999,-999.0,-999.0,84,-99.99,,,-99.99,,2013-02-04 05:33:00,
2013-02-04 00:42:00,10.0,6.0,-100.00,North,-999,-999.0,-999.0,84,-99.99,,,-99.99,,2013-02-04 05:42:00,
2013-02-04 00:52:00,10.0,6.0,-100.00,North,-999,-999.0,-999.0,84,-99.99,,,-99.99,,2013-02-04 05:52:00,
2013-02-04 01:02:00,10.0,6.0,-100.00,North,-999,-999.0,-999.0,84,-99.99,,,-99.99,,2013-02-04 06:02:00,
2013-02-04 01:11:00,10.0,6.0,-100.00,North,-999,-999.0,-999.0,84,-99.99,,,-99.99,,2013-02-04 06:11:00,
2013-02-04 01:21:00,8.0,4.0,-100.00,North,-999,-999.0,-999.0,85,-99.99,,,-99.99,,2013-02-04 06:21:00,
2013-02-04 01:32:00,9.0,5.0,-100.00,North,-999,-999.0,-999.0,85,-99.99,,,-99.99,,2013-02-04 06:32:00,
2013-02-04 01:42:00,9.0,5.0,-100.00,North,-999,-999.0,-999.0,85,-99.99,,,-99.99,,2013-02-04 06:42:00,
2013-02-04 01:52:00,9.0,5.0,-100.00,North,-999,-999.0,-999.0,85,-99.99,,,-99.99,,2013-02-04 06:52:00,
2013-02-04 02:02:00,9.0,5.0,-100.00,North,-999,-999.0,-999.0,85,-99.99,,,-99.99,,2013-02-04 07:02:00,
2013-02-04 02:11:00,9.0,5.0,-100.00,North,-999,-999.0,-999.0,85,-99.99,,,-99.99,,2013-02-04 07:11:00,
2013-02-04 02:21:00,9.0,5.0,-100.00,North,-999,-999.0,-999.0,85,-99.99,,,-99.99,,2013-02-04 07:21:00,
2013-02-04 02:32:00,10.0,6.0,-100.00,North,-999,-999.0,-999.0,85,-99.99,,,-99.99,,2013-02-04 07:32:00,
2013-02-04 02:42:00,10.0,6.0,-100.00,North,-999,-999.0,-999.0,85,-99.99,,,-99.99,,2013-02-04 07:42:00,
2013-02-04 02:52:00,8.0,4.0,-100.00,North,-999,-999.0,-999.0,85,-99.99,,,-99.99,,2013-02-04 07:52:00,
2013-02-04 03:01:00,9.0,5.0,-100.00,North,-999,-999.0,-999.0,84,-99.99,,,-99.99,,2013-02-04 08:01:00,
2013-02-04 03:11:00,9.0,5.0,-100.00,North,-999,-999.0,-999.0,84,-99.99,,,-99.99,,2013-02-04 08:11:00,
2013-02-04 03:21:00,9.0,5.0,-100.00,North,-999,-999.0,-999.0,85,-99.99,,,-99.99,,2013-02-04 08:21:00,
2013-02-04 03:32:00,9.0,5.0,-100.00,North,-999,-999.0,-999.0,85,-99.99,,,-99.99,,2013-02-04 08:32:00,
2013-02-04 03:42:00,9.0,5.0,-100.00,North,-999,-999.0,-999.0,85,-99.99,,,-99.99,,2013-02-04 08:42:00,
2013-02-04 03:52:00,9.0,5.0,-100.00,North,-999,-999.0,-999.0,85,-99.99,,,-99.99,,2013-02-04 08:52:00,
2013-02-04 04:52:00,11.0,7.0,-100.00,North,-999,-999.0,-999.0,85,-99.99,,,-99.99,,2013-02-04 09:52:00,
2013-02-04 05:02:00,12.0,8.0,-100.00,North,-999,-999.0,-999.0,85,-99.99,,,-99.99,,2013-02-04 10:02:00,
2013-02-04 05:12:00,12.0,8.0,-100.00,North,-999,-999.0,-999.0,85,-99.99,,,-99.99,,2013-02-04 10:12:00,
2013-02-04 05:21:00,12.0,8.0,-100.00,North,-999,-999.0,-999.0,85,-99.99,,,-99.99,,2013-02-04 10:21:00,
2013-02-04 05:32:00,13.0,9.0,-100.00,North,-999,-999.0,-999.0,85,-99.99,,,-99.99,,2013-02-04 10:32:00,
2013-02-04 05:42:00,13.0,9.0,-100.00,North,-999,-999.0,-999.0,85,-99.99,,,-99.99,,2013-02-04 10:42:00,
2013-02-04 05:52:00,14.0,10.0,-100.00,North,-999,-999.0,-999.0,85,-99.99,,,-99.99,,2013-02-04 10:52:00,
2013-02-04 06:02:00,13.0,9.0,-100.00,North,-999,-999.0,-999.0,85,-99.99,,,-99.99,,2013-02-04 11:02:00,
2013-02-04 06:11:00,13.0,9.0,-100.00,North,-999,-999.0,-999.0,85,-99.99,,,-99.99,,2013-02-04 11:11:00,
2013-02-04 06:22:00,12.0,8.0,-100.00,North,-999,-999.0,-999.0,85,-99.99,,,-99.99,,2013-02-04 11:22:00,
2013-02-04 06:33:00,12.0,8.0,-100.00,North,-999,-999.0,-999.0,85,-99.99,,,-99.99,,2013-02-04 11:33:00,
2013-02-04 06:42:00,12.0,8.0,-100.00,North,-999,-999.0,-999.0,85,-99.99,,,-99.99,,2013-02-04 11:42:00,
2013-02-04 06:52:00,15.0,11.0,-100.00,North,-999,-999.0,-999.0,84,-99.99,,,-99.99,,2013-02-04 11:52:00,
2013-02-04 07:02:00,13.0,9.0,-100.00,North,-999,-999.0,-999.0,83,-99.99,,,-99.99,,2013-02-04 12:02:00,
2013-02-04 07:12:00,13.0,9.0,-100.00,North,-999,-999.0,-999.0,83,-99.99,,,-99.99,,2013-02-04 12:12:00,
2013-02-04 07:22:00,14.0,10.0,-100.00,North,-999,-999.0,-999.0,82,-99.99,,,-99.99,,2013-02-04 12:22:00,
2013-02-04 07:32:00,13.0,8.0,-100.00,North,-999,-999.0,-999.0,81,-99.99,,,-99.99,,2013-02-04 12:32:00,
2013-02-04 07:42:00,13.0,8.0,-100.00,North,-999,-999.0,-999.0,81,-99.99,,,-99.99,,2013-02-04 12:42:00,
2013-02-04 07:53:00,15.0,10.0,-100.00,North,-999,-999.0,-999.0,80,-99.99,,,-99.99,,2013-02-04 12:53:00,
2013-02-04 08:03:00,15.0,10.0,-100.00,North,-999,-999.0,-999.0,80,-99.99,,,-99.99,,2013-02-04 13:03:00,
2013-02-04 08:12:00,16.0,10.0,-100.00,North,-999,-999.0,-999.0,78,-99.99,,,-99.99,,2013-02-04 13:12:00,
2013-02-04 08:22:00,16.0,10.0,-100.00,North,-999,-999.0,-999.0,78,-99.99,,,-99.99,,2013-02-04 13:22:00,
2013-02-04 08:33:00,17.0,11.0,-100.00,North,-999,-999.0,-999.0,77,-99.99,,,-99.99,,2013-02-04 13:33:00,
2013-02-04 08:42:00,17.0,11.0,-100.00,North,-999,-999.0,-999.0,77,-99.99,,,-99.99,,2013-02-04 13:42:00,
2013-02-04 08:52:00,19.0,13.0,-100.00,North,-999,-999.0,-999.0,76,-99.99,,,-99.99,,2013-02-04 13:52:00,
2013-02-04 09:03:00,19.0,12.0,-100.00,North,-999,-999.0,-999.0,74,-99.99,,,-99.99,,2013-02-04 14:03:00,
2013-02-04 09:12:00,19.0,12.0,-100.00,North,-999,-999.0,-999.0,74,-99.99,,,-99.99,,2013-02-04 14:12:00,
2013-02-04 09:23:00,19.0,12.0,-100.00,North,-999,-999.0,-999.0,73,-99.99,,,-99.99,,2013-02-04 14:23:00,
2013-02-04 09:33:00,21.0,12.0,-100.00,North,-999,-999.0,-999.0,69,-99.99,,,-99.99,,2013-02-04 14:33:00,
2013-02-04 09:42:00,21.0,12.0,-100.00,North,-999,-999.0,-999.0,69,-99.99,,,-99.99,,2013-02-04 14:42:00,
2013-02-04 09:52:00,21.0,12.0,-100.00,North,-999,-999.0,-999.0,67,-99.99,,,-99.99,,2013-02-04 14:52:00,
2013-02-04 10:03:00,22.0,12.0,-100.00,North,-999,-999.0,-999.0,66,-99.99,,,-99.99,,2013-02-04 15:03:00,
2013-02-04 10:13:00,22.0,12.0,-100.00,North,-999,-999.0,-999.0,66,-99.99,,,-99.99,,2013-02-04 15:13:00,
2013-02-04 10:24:00,23.0,13.0,-100.00,North,-999,-999.0,-999.0,64,-99.99,,,-99.99,,2013-02-04 15:24:00,
2013-02-04 10:33:00,24.0,13.0,-100.00,North,-999,-999.0,-999.0,61,-99.99,,,-99.99,,2013-02-04 15:33:00,
2013-02-04 10:43:00,24.0,13.0,-100.00,North,-999,-999.0,-999.0,61,-99.99,,,-99.99,,2013-02-04 15:43:00,
2013-02-04 10:52:00,22.0,10.0,-100.00,North,-999,-999.0,-999.0,59,-99.99,,,-99.99,,2013-02-04 15:52:00,
2013-02-04 11:03:00,23.0,12.0,-100.00,North,-999,-999.0,-999.0,61,-99.99,,,-99.99,,2013-02-04 16:03:00,
2013-02-04 11:11:00,23.0,12.0,-100.00,North,-999,-999.0,-999.0,61,-99.99,,,-99.99,,2013-02-04 16:11:00,
2013-02-04 11:23:00,24.0,12.0,-100.00,North,-999,-999.0,-999.0,59,-99.99,,,-99.99,,2013-02-04 16:23:00,
2013-02-04 11:33:00,24.0,12.0,-100.00,North,-999,-999.0,-999.0,59,-99.99,,,-99.99,,2013-02-04 16:33:00,
2013-02-04 11:43:00,24.0,12.0,-100.00,North,-999,-999.0,-999.0,59,-99.99,,,-99.99,,2013-02-04 16:43:00,
2013-02-04 11:52:00,24.0,11.0,-100.00,North,-999,-999.0,-999.0,57,-99.99,,,-99.99,,2013-02-04 16:52:00,
2013-02-04 12:02:00,24.0,11.0,-100.00,North,-999,-999.0,-999.0,57,-99.99,,,-99.99,,2013-02-04 17:02:00,
2013-02-04 12:12:00,24.0,11.0,-100.00,North,-999,-999.0,-999.0,57,-99.99,,,-99.99,,2013-02-04 17:12:00,
2013-02-04 12:21:00,24.0,11.0,-100.00,North,-999,-999.0,-999.0,56,-99.99,,,-99.99,,2013-02-04 17:21:00,
2013-02-04 12:32:00,24.0,11.0,-100.00,North,-999,-999.0,-999.0,56,-99.99,,,-99.99,,2013-02-04 17:32:00,
2013-02-04 12:42:00,24.0,11.0,-100.00,North,-999,-999.0,-999.0,56,-99.99,,,-99.99,,2013-02-04 17:42:00,
2013-02-04 12:52:00,23.0,10.0,-100.00,North,-999,-999.0,-999.0,56,-99.99,,,-99.99,,2013-02-04 17:52:00,
2013-02-04 13:03:00,25.0,11.0,-100.00,North,-999,-999.0,-999.0,55,-99.99,,,-99.99,,2013-02-04 18:03:00,
2013-02-04 13:11:00,25.0,11.0,-100.00,North,-999,-999.0,-999.0,55,-99.99,,,-99.99,,2013-02-04 18:11:00,
2013-02-04 13:22:00,23.0,9.0,-100.00,North,-999,-999.0,-999.0,55,-99.99,,,-99.99,,2013-02-04 18:22:00,
2013-02-04 13:32:00,23.0,9.0,-100.00,North,-999,-999.0,-999.0,55,-99.99,,,-99.99,,2013-02-04 18:32:00,
2013-02-04 13:42:00,23.0,9.0,-100.00,North,-999,-999.0,-999.0,55,-99.99,,,-99.99,,2013-02-04 18:42:00,
2013-02-04 13:52:00,29.0,14.0,-100.00,North,-999,-999.0,-999.0,53,-99.99,,,-99.99,,2013-02-04 18:52:00,
2013-02-04 14:02:00,26.0,9.0,-100.00,North,-999,-999.0,-999.0,49,-99.99,,,-99.99,,2013-02-04 19:02:00,
2013-02-04 14:12:00,26.0,9.0,-100.00,North,-999,-999.0,-999.0,49,-99.99,,,-99.99,,2013-02-04 19:12:00,
2013-02-04 14:22:00,25.0,9.0,-100.00,North,-999,-999.0,-999.0,51,-99.99,,,-99.99,,2013-02-04 19:22:00,
2013-02-04 14:32:00,25.0,10.0,-100.00,North,-999,-999.0,-999.0,52,-99.99,,,-99.99,,2013-02-04 19:32:00,
2013-02-04 14:42:00,25.0,10.0,-100.00,North,-999,-999.0,-999.0,52,-99.99,,,-99.99,,2013-02-04 19:42:00,
2013-02-04 14:52:00,24.0,10.0,-100.00,North,-999,-999.0,-999.0,54,-99.99,,,-99.99,,2013-02-04 19:52:00,
2013-02-04 15:02:00,23.0,8.0,-100.00,North,-999,-999.0,-999.0,53,-99.99,,,-99.99,,2013-02-04 20:02:00,
2013-02-04 15:12:00,23.0,8.0,-100.00,North,-999,-999.0,-999.0,53,-99.99,,,-99.99,,2013-02-04 20:12:00,
2013-02-04 15:22:00,23.0,9.0,-100.00,North,-999,-999.0,-999.0,55,-99.99,,,-99.99,,2013-02-04 20:22:00,
2013-02-04 15:32:00,23.0,9.0,-100.00,North,-999,-999.0,-999.0,55,-99.99,,,-99.99,,2013-02-04 20:32:00,
2013-02-04 15:42:00,23.0,9.0,-100.00,North,-999,-999.0,-999.0,55,-99.99,,,-99.99,,2013-02-04 20:42:00,
2013-02-04 15:52:00,21.0,8.0,-100.00,North,-999,-999.0,-999.0,56,-99.99,,,-99.99,,2013-02-04 20:52:00,
2013-02-04 16:03:00,21.0,9.0,-100.00,North,-999,-999.0,-999.0,58,-99.99,,,-99.99,,2013-02-04 21:03:00,
2013-02-04 16:12:00,21.0,9.0,-100.00,North,-999,-999.0,-999.0,58,-99.99,,,-99.99,,2013-02-04 21:12:00,
2013-02-04 16:22:00,21.0,9.0,-100.00,North,-999,-999.0,-999.0,59,-99.99,,,-99.99,,2013-02-04 21:22:00,
2013-02-04 16:32:00,21.0,9.0,-100.00,North,-999,-999.0,-999.0,59,-99.99,,,-99.99,,2013-02-04 21:32:00,
2013-02-04 16:43:00,21.0,9.0,-100.00,North,-999,-999.0,-999.0,59,-99.99,,,-99.99,,2013-02-04 21:43:00,
2013-02-04 16:52:00,21.0,9.0,-100.00,North,-999,-999.0,-999.0,59,-99.99,,,-99.99,,2013-02-04 21:52:00,
2013-02-04 17:03:00,21.0,9.0,-100.00,North,-999,-999.0,-999.0,59,-99.99,,,-99.99,,2013-02-04 22:03:00,
2013-02-04 17:12:00,21.0,9.0,-100.00,North,-999,-999.0,-999.0,59,-99.99,,,-99.99,,2013-02-04 22:12:00,
2013-02-04 17:21:00,20.0,8.0,-100.00,North,-999,-999.0,-999.0,58,-99.99,,,-99.99,,2013-02-04 22:21:00,
2013-02-04 17:32:00,19.0,6.0,-100.00,North,-999,-999.0,-999.0,57,-99.99,,,-99.99,,2013-02-04 22:32:00,
2013-02-04 17:42:00,19.0,6.0,-100.00,North,-999,-999.0,-999.0,57,-99.99,,,-99.99,,2013-02-04 22:42:00,
2013-02-04 17:52:00,18.0,6.0,-100.00,North,-999,-999.0,-999.0,60,-99.99,,,-99.99,,2013-02-04 22:52:00,
2013-02-04 18:01:00,18.0,6.0,-100.00,North,-999,-999.0,-999.0,60,-99.99,,,-99.99,,2013-02-04 23:01:00,
2013-02-04 18:11:00,18.0,6.0,-100.00,North,-999,-999.0,-999.0,60,-99.99,,,-99.99,,2013-02-04 23:11:00,
2013-02-04 18:22:00,17.0,7.0,-100.00,North,-999,-999.0,-999.0,63,-99.99,,,-99.99,,2013-02-04 23:22:00,
2013-02-04 18:32:00,17.0,7.0,-100.00,North,-999,-999.0,-999.0,64,-99.99,,,-99.99,,2013-02-04 23:32:00,
2013-02-04 18:42:00,17.0,7.0,-100.00,North,-999,-999.0,-999.0,64,-99.99,,,-99.99,,2013-02-04 23:42:00,
2013-02-04 18:52:00,16.0,7.0,-100.00,North,-999,-999.0,-999.0,66,-99.99,,,-99.99,,2013-02-04 23:52:00,
2013-02-04 19:02:00,16.0,7.0,-100.00,North,-999,-999.0,-999.0,66,-99.99,,,-99.99,,2013-02-05 00:02:00,
2013-02-04 19:11:00,16.0,7.0,-100.00,North,-999,-999.0,-999.0,66,-99.99,,,-99.99,,2013-02-05 00:11:00,
2013-02-04 19:22:00,15.0,6.0,-100.00,North,-999,-999.0,-999.0,68,-99.99,,,-99.99,,2013-02-05 00:22:00,
2013-02-04 19:32:00,15.0,6.0,-100.00,North,-999,-999.0,-999.0,68,-99.99,,,-99.99,,2013-02-05 00:32:00,
2013-02-04 19:42:00,15.0,6.0,-100.00,North,-999,-999.0,-999.0,68,-99.99,,,-99.99,,2013-02-05 00:42:00,
2013-02-04 19:52:00,14.0,6.0,-100.00,North,-999,-999.0,-999.0,69,-99.99,,,-99.99,,2013-02-05 00:52:00,
2013-02-04 20:02:00,14.0,6.0,-100.00,North,-999,-999.0,-999.0,69,-99.99,,,-99.99,,2013-02-05 01:02:00,
2013-02-04 20:12:00,14.0,6.0,-100.00,North,-999,-999.0,-999.0,69,-99.99,,,-99.99,,2013-02-05 01:12:00,
2013-02-04 20:22:00,14.0,6.0,-100.00,North,-999,-999.0,-999.0,70,-99.99,,,-99.99,,2013-02-05 01:22:00,
2013-02-04 20:32:00,14.0,6.0,-100.00,North,-999,-999.0,-999.0,71,-99.99,,,-99.99,,2013-02-05 01:32:00,
2013-02-04 20:42:00,14.0,6.0,-100.00,North,-999,-999.0,-999.0,71,-99.99,,,-99.99,,2013-02-05 01:42:00,
2013-02-04 20:52:00,12.0,5.0,-100.00,North,-999,-999.0,-999.0,73,-99.99,,,-99.99,,2013-02-05 01:52:00,
2013-02-04 21:01:00,12.0,6.0,-100.00,North,-999,-999.0,-999.0,75,-99.99,,,-99.99,,2013-02-05 02:01:00,
2013-02-04 21:11:00,12.0,6.0,-100.00,North,-999,-999.0,-999.0,75,-99.99,,,-99.99,,2013-02-05 02:11:00,
2013-02-04 21:22:00,11.0,4.0,-100.00,North,-999,-999.0,-999.0,74,-99.99,,,-99.99,,2013-02-05 02:22:00,
2013-02-04 21:32:00,12.0,6.0,-100.00,North,-999,-999.0,-999.0,76,-99.99,,,-99.99,,2013-02-05 02:32:00,
2013-02-04 21:42:00,12.0,6.0,-100.00,North,-999,-999.0,-999.0,76,-99.99,,,-99.99,,2013-02-05 02:42:00,
2013-02-04 21:52:00,13.0,6.0,-100.00,North,-999,-999.0,-999.0,74,-99.99,,,-99.99,,2013-02-05 02:52:00,
2013-02-04 22:02:00,13.0,6.0,-100.00,North,-999,-999.0,-999.0,74,-99.99,,,-99.99,,2013-02-05 03:02:00,
2013-02-04 22:11:00,13.0,6.0,-100.00,North,-999,-999.0,-999.0,74,-99.99,,,-99.99,,2013-02-05 03:11:00,
2013-02-04 22:21:00,12.0,6.0,-100.00,North,-999,-999.0,-999.0,76,-99.99,,,-99.99,,2013-02-05 03:21:00,
2013-02-04 22:32:00,13.0,7.0,-100.00,North,-999,-999.0,-999.0,75,-99.99,,,-99.99,,2013-02-05 03:32:00,
2013-02-04 22:42:00,13.0,7.0,-100.00,North,-999,-999.0,-999.0,75,-99.99,,,-99.99,,2013-02-05 03:42:00,
2013-02-04 22:52:00,13.0,7.0,-100.00,North,-999,-999.0,-999.0,75,-99.99,,,-99.99,,2013-02-05 03:52:00,
2013-02-04 23:01:00,13.0,7.0,-100.00,North,-999,-999.0,-999.0,75,-99.99,,,-99.99,,2013-02-05 04:01:00,
2013-02-04 23:11:00,13.0,7.0,-100.00,North,-999,-999.0,-999.0,75,-99.99,,,-99.99,,2013-02-05 04:11:00,
2013-02-04 23:22:00,14.0,7.0,-100.00,North,-999,-999.0,-999.0,73,-99.99,,,-99.99,,2013-02-05 04:22:00,
2013-02-04 23:32:00,14.0,7.0,-100.00,North,-999,-999.0,-999.0,74,-99.99,,,-99.99,,2013-02-05 04:32:00,
2013-02-04 23:42:00,14.0,7.0,-100.00,North,-999,-999.0,-999.0,74,-99.99,,,-99.99,,2013-02-05 04:42:00,
2013-02-04 23:52:00,14.0,7.0,-100.00,North,-999,-999.0,-999.0,73,-99.99,,,-99.99,,2013-02-05 04:52:00,